Flag for U.S.A. Weather past 2 weeks in Baltimore, Maryland, U.S.A.

Now
20 °F

Passing clouds.


Feels Like: 9 °F
Forecast: 13 / 27 °F
Wind: 9 mph from Northwest

Location: Baltimore-Washington International Airport

Current Time: Feb 28, 2015 at 12:31:30 AM

Latest Report: Feb 27, 2015 at 11:54 PM


Visibility: 10 mi

Pressure: 30.66 "Hg

Humidity: 43%

Dew point: 1 °F

Location of BaltimoreLocation

Historic Weather in Baltimore — Graph

°F

Baltimore temperature yesterday

Maximum temperature yesterday: 31 °F (at 12:54 PM)
Minimum temperature yesterday: 22 °F (at 10:54 PM)
Average temperature yesterday: 28 °F

Past Weeks' High & Low Weather Summary

 TemperatureHumidityPressure
High46 °F (Feb 22, 2:54 PM)96% (Feb 21, 9:54 PM)30.65 "Hg (Feb 21, 9:54 PM)
Low1 °F (Feb 20, 6:54 AM)29% (Feb 13, 3:54 PM)29.48 "Hg (Feb 14, 6:54 PM)
Average20 °F58%30.12 "Hg
* Reported Feb 12 10:54 PM — Feb 27 10:54 PM, Baltimore, Weather by CustomWeather, © 2015

Note: Actual official high and low records may vary slightly from our data, if they occured in-between our weather recording intervals... More about our weather records

Advertising

Baltimore weather history for previous 24 hours

 ConditionsComfort  
Time TempWeatherWind HumidityBarometerVisibility
10:54 PM
Fri, Feb 27
22 °FPassing clouds.9 mph42%30.65 "Hg10 mi
9:54 PM23 °FPassing clouds.6 mph44%30.62 "Hg10 mi
8:54 PM25 °FClear.8 mph44%30.58 "Hg10 mi
7:54 PM26 °FClear.6 mph44%30.56 "Hg10 mi
6:54 PM26 °FClear.5 mph44%30.54 "Hg10 mi
5:54 PM27 °FPassing clouds.6 mph42%30.50 "Hg10 mi
4:54 PM30 °FPassing clouds.12 mph41%30.49 "Hg10 mi
3:54 PM30 °FScattered clouds.15 mph43%30.48 "Hg10 mi
2:54 PM30 °FScattered clouds.12 mph45%30.45 "Hg10 mi
1:54 PM29 °FScattered clouds.13 mph49%30.43 "Hg10 mi
12:54 PM31 °FScattered clouds.8 mph45%30.42 "Hg10 mi
11:54 AM30 °FBroken clouds.10 mph51%30.43 "Hg10 mi
10:54 AM28 °FPartly sunny.9 mph61%30.42 "Hg10 mi
9:54 AM28 °FMostly cloudy.9 mph64%30.40 "Hg10 mi
8:54 AM29 °FLight snow. More clouds than sun.7 mph64%30.38 "Hg9 mi
7:54 AM29 °FMore clouds than sun.6 mph69%30.35 "Hg8 mi
6:54 AM27 °FBroken clouds.6 mph81%30.29 "Hg4 mi
5:54 AM27 °FMostly cloudy.No wind81%30.27 "Hg8 mi
4:54 AM26 °FPassing clouds.No wind81%30.24 "Hg9 mi
3:54 AM27 °FPassing clouds.No wind78%30.21 "Hg9 mi
2:54 AM28 °FMostly cloudy.No wind78%30.19 "Hg9 mi
1:54 AM27 °FOvercast.No wind78%30.19 "Hg7 mi
12:54 AM28 °FOvercast.No wind75%30.16 "Hg8 mi
Weather by CustomWeather, © 2015

See weather overviewHow to use our weather pages